Вернуться в каталог

SL-8 R/B

АктивенLEO
NORAD 6320·ROCKET BODY·🇷🇺 Russia

Запущен Dec 21, 1972 с Plesetsk Cosmodrome

Loading…

Ближайшие Пролёты (ближайшие 24 часа)

TLE

СвежийSource: Space-Track

Эпоха: Sep 14, 2026, 09:55 UTC

1 06320U 72102B   26257.41384970  .00000060  00000-0  35559-3 0  9997
2 06320  74.0129  63.7632 0024562 217.9828 165.0240 12.77036864504594

Отслеживайте SL-8 R/B в реальном времени с AllMySat

Download on the App Store